Probability
0 0 0 0 0 0 0 0 0 0 0 0 0 0 0 0 0 0 3 3 0 0 0 3 3 3 0 3 3 3 3 3 3 0 0 0 0 0 0 0 0 0 0 0
0 0 0 0 0 0 0 0 0 0 0 0 0 0 0 0 0 0 0 0 0 0 0 0 3 3 0 0 3 3 6 6 3 0 0 0 0 0 0 0 0 0 0 0
0 0 0 0 0 0 0 0 0 0 0 0 0 0 0 0 0 0 0 0 0 0 0 0 3 3 3 3 6 3 3 3 3 0 0 0 0 0 0 0 0 0 0 0
0 0 0 0 0 0 0 0 0 0 0 0 0 0 0 0 0 0 0 0 0 3 3 6 6 3 0 0 3 3 3 3 0 0 0 0 0 0 0 0 0 0 0 0
0 0 0 0 0 0 0 0 0 0 0 0 0 0 0 0 0 0 0 0 0 0 0 0 0 0 0 0 3 3 3 3 3 0 0 0 0 0 0 0 0 0 0 0
0 0 0 0 0 0 0 0 0 0 0 0 0 0 0 0 0 0 0 0 0 0 0 0 0 3 3 6 6 6 3 3 3 3 0 0 0 0 0 0 0 0 0 0
0 0 0 0 0 0 0 0 0 0 0 0 0 0 0 0 0 0 0 0 0 3 0 0 0 0 0 6 6 3 3 3 3 3 0 0 0 0 0 0 0 0 0 0
0 0 0 0 0 0 0 0 0 0 0 0 0 0 0 0 0 0 0 0 0 0 0 0 0 0 3 3 3 3 3 3 3 3 3 3 3 0 0 0 0 0 0 0
0 0 0 0 0 0 0 0 0 0 0 0 0 0 0 0 0 0 0 0 0 0 0 0 0 0 3 3 3 3 3 3 3 3 3 3 3 0 0 0 0 0 0 0
0 0 0 0 0 0 0 0 0 0 0 0 0 0 0 0 0 0 0 0 0 0 0 0 0 3 3 3 3 3 3 3 3 3 3 3 3 3 3 0 0 0 0 0
0 0 0 0 0 0 0 0 0 0 0 0 0 0 0 0 0 0 0 0 0 0 0 0 0 3 3 3 3 3 3 3 3 3 3 3 3 3 3 0 0 0 0 0
0 0 0 0 0 0 0 0 0 0 0 0 0 0 0 0 0 0 0 0 0 0 0 0 3 3 3 3 3 3 3 3 3 3 3 3 3 3 0 0 0 0 0 0
0 0 0 0 0 0 0 0 0 0 0 0 0 0 0 0 0 0 0 0 0 0 0 0 3 3 3 3 3 3 3 3 3 3 3 3 3 3 0 0 0 0 0 0
0 0 0 0 0 0 0 0 0 0 0 0 0 0 0 0 0 0 0 0 0 0 0 3 3 3 3 3 3 3 3 3 3 3 3 3 3 3 0 0 0 0 0 0
0 0 0 0 0 0 0 0 0 0 0 0 0 0 0 0 0 0 0 0 0 0 0 0 3 3 3 3 3 3 3 3 3 3 3 3 3 3 0 0 0 0 0 0
0 0 0 0 0 0 0 0 0 0 0 0 0 0 0 0 0 0 0 0 0 0 0 0 0 3 3 3 3 3 3 3 3 3 3 3 3 0 0 0 0 0 0 0
0 0 0 0 0 0 0 0 0 0 0 0 0 0 0 0 0 0 0 0 0 0 0 0 0 0 3 3 3 3 3 3 3 3 3 3 0 0 0 0 0 0 0 0
0 0 0 0 0 0 0 0 0 0 0 0 0 0 0 0 0 0 0 0 0 0 0 3 0 0 3 3 3 3 3 3 3 3 3 0 0 0 0 0 0 0 0 0
0 0 0 0 0 0 0 0 0 0 0 0 0 0 0 0 0 0 0 0 0 0 0 0 0 0 0 0 3 3 3 3 3 3 3 0 0 0 0 0 0 0 0 0
0 0 0 0 0 0 0 0 0 0 0 0 0 0 0 0 0 0 0 0 0 0 0 0 0 0 0 3 0 3 3 3 3 3 0 0 0 0 0 0 0 0 0 0
0 0 0 0 0 0 0 0 0 0 0 0 0 0 0 0 0 0 0 0 0 0 0 0 0 0 0 0 3 3 3 3 3 0 0 0 0 0 0 0 0 0 0 0
0 0 0 0 0 0 0 0 0 0 0 0 0 0 0 0 0 0 0 0 0 0 0 0 0 0 0 0 0 3 3 0 0 0 0 0 0 0 0 0 0 0 0 0
0 0 0 0 0 0 0 0 0 0 0 0 0 0 0 0 0 0 0 0 0 0 0 0 0 0 0 0 0 0 3 0 0 0 0 0 0 0 0 0 0 0 0 0
0 0 0 0 0 0 0 0 0 0 0 0 0 0 0 0 0 0 0 0 0 0 0 0 0 0 0 0 0 0 0 0 0 0 0 0 0 0 0 0 0 0 0 0
0 0 0 0 0 0 0 0 0 0 0 0 0 0 0 0 0 0 0 0 0 0 0 0 0 0 0 0 0 0 0 0 0 0 0 0 0 0 0 0 0 0 0 0
0 0 0 0 0 0 0 0 0 0 0 0 0 0 0 0 0 0 0 0 0 0 0 0 0 0 0 0 0 0 0 0 0 0 0 0 0 0 0 0 0 0 0 0
Height
5834 5839 5841 5845 5848 5852 5854 5857 5860 5863 5865 5868 5870 5872 5874 5876 5878 5880 5882 5884 5885 5886 5888 5889 5890 5891 5892 5893 5893 5894 5894 5894 5894 5893 5892 5892 5891 5889 5888 5886 5884 5882 5880 5878
5836 5839 5842 5844 5848 5851 5854 5857 5860 5863 5865 5868 5870 5872 5874 5876 5878 5880 5881 5883 5884 5885 5887 5888 5889 5890 5891 5892 5893 5893 5893 5893 5893 5892 5892 5891 5890 5889 5888 5886 5884 5882 5880 5878
5837 5840 5842 5845 5848 5851 5855 5858 5860 5863 5865 5868 5870 5872 5874 5875 5877 5879 5880 5882 5883 5884 5886 5887 5888 5889 5890 5891 5892 5892 5892 5892 5892 5891 5891 5890 5890 5889 5887 5886 5884 5882 5879 5877
5839 5841 5843 5846 5849 5852 5855 5858 5860 5863 5866 5868 5870 5872 5874 5875 5877 5878 5879 5881 5882 5883 5885 5886 5887 5888 5889 5890 5890 5891 5891 5891 5891 5891 5890 5890 5889 5888 5886 5885 5883 5881 5878 5876
5840 5842 5845 5847 5850 5853 5855 5858 5861 5863 5866 5868 5870 5872 5874 5874 5876 5877 5878 5880 5881 5882 5883 5885 5886 5887 5888 5889 5889 5890 5890 5890 5890 5890 5889 5889 5888 5887 5885 5883 5882 5880 5877 5875
5842 5844 5846 5848 5850 5853 5856 5859 5861 5863 5866 5868 5869 5871 5873 5873 5875 5876 5877 5878 5879 5881 5882 5883 5884 5885 5886 5887 5888 5888 5889 5889 5889 5889 5888 5887 5886 5885 5884 5882 5880 5878 5876 5874
5843 5845 5847 5849 5851 5854 5856 5860 5862 5864 5866 5868 5868 5870 5872 5872 5873 5874 5876 5877 5878 5879 5880 5881 5883 5884 5885 5885 5886 5887 5887 5887 5887 5887 5886 5885 5885 5883 5882 5880 5878 5876 5874 5872
5844 5846 5848 5849 5852 5854 5856 5860 5863 5865 5866 5867 5867 5869 5871 5871 5872 5873 5874 5875 5876 5877 5878 5879 5880 5882 5883 5884 5884 5885 5885 5885 5885 5885 5884 5883 5882 5881 5880 5878 5876 5874 5872 5870
5844 5846 5848 5849 5851 5854 5856 5858 5861 5863 5864 5866 5867 5868 5869 5869 5870 5871 5872 5873 5874 5875 5876 5877 5878 5879 5880 5881 5882 5882 5883 5883 5883 5882 5882 5881 5880 5879 5877 5876 5874 5872 5869 5867
5844 5846 5847 5849 5851 5854 5856 5858 5860 5862 5863 5865 5866 5866 5868 5868 5868 5869 5870 5871 5872 5874 5874 5875 5876 5877 5878 5879 5879 5880 5880 5880 5880 5879 5879 5878 5877 5876 5874 5873 5871 5869 5866 5864
5844 5846 5848 5850 5851 5853 5856 5857 5859 5860 5862 5864 5865 5868 5866 5866 5867 5868 5869 5869 5870 5871 5872 5873 5874 5875 5876 5876 5876 5877 5877 5877 5877 5876 5876 5875 5874 5872 5871 5869 5867 5865 5863 5860
5844 5846 5848 5850 5851 5852 5854 5855 5857 5859 5860 5861 5863 5867 5864 5864 5864 5865 5866 5867 5868 5869 5870 5871 5871 5872 5873 5873 5873 5873 5873 5873 5873 5872 5872 5871 5870 5868 5867 5865 5863 5861 5859 5856
5844 5846 5848 5850 5852 5852 5852 5854 5855 5856 5858 5859 5860 5864 5861 5862 5862 5863 5864 5865 5866 5867 5867 5868 5868 5869 5869 5869 5869 5869 5869 5869 5869 5868 5868 5867 5865 5864 5862 5860 5858 5856 5854 5852
5843 5845 5848 5849 5849 5850 5851 5852 5853 5854 5855 5856 5858 5859 5859 5859 5860 5861 5861 5862 5863 5864 5864 5865 5865 5865 5865 5865 5865 5865 5865 5865 5865 5864 5863 5862 5861 5859 5857 5856 5854 5851 5849 5847
5842 5843 5844 5846 5846 5847 5849 5850 5850 5851 5852 5854 5855 5855 5856 5856 5857 5858 5858 5859 5860 5860 5861 5861 5861 5861 5861 5861 5861 5861 5861 5860 5860 5859 5858 5857 5855 5854 5852 5850 5848 5846 5844 5841
5839 5841 5842 5843 5844 5845 5846 5847 5847 5848 5849 5850 5851 5852 5852 5853 5853 5854 5855 5855 5856 5857 5857 5857 5857 5857 5857 5857 5856 5856 5856 5855 5855 5854 5853 5851 5850 5848 5846 5844 5842 5840 5837 5835
5837 5838 5840 5841 5841 5842 5843 5844 5844 5845 5846 5846 5848 5850 5849 5849 5850 5850 5851 5851 5852 5852 5852 5853 5852 5852 5852 5852 5851 5851 5850 5850 5849 5848 5847 5845 5844 5842 5840 5838 5835 5833 5830 5828
5834 5835 5836 5837 5838 5839 5842 5840 5840 5841 5842 5842 5843 5844 5844 5845 5845 5846 5846 5846 5847 5847 5848 5847 5847 5847 5847 5847 5846 5845 5845 5844 5843 5842 5840 5839 5837 5835 5833 5831 5828 5825 5823 5820
5830 5831 5832 5833 5833 5834 5836 5836 5836 5836 5838 5838 5838 5839 5839 5840 5840 5841 5841 5842 5842 5842 5842 5842 5842 5842 5841 5841 5840 5840 5839 5838 5836 5835 5833 5832 5830 5828 5825 5823 5820 5817 5815 5812
5825 5826 5828 5828 5828 5830 5832 5831 5831 5833 5833 5834 5833 5834 5835 5835 5836 5837 5836 5836 5837 5837 5837 5837 5836 5836 5836 5835 5834 5833 5832 5831 5830 5828 5826 5824 5822 5820 5817 5815 5812 5809 5806 5804
5820 5821 5822 5823 5823 5825 5826 5826 5827 5829 5829 5829 5828 5829 5829 5830 5831 5831 5831 5831 5831 5831 5831 5831 5830 5830 5829 5829 5828 5827 5825 5824 5822 5820 5818 5816 5814 5811 5809 5806 5803 5800 5798 5795
5815 5816 5817 5817 5818 5821 5820 5821 5822 5823 5822 5823 5823 5823 5824 5824 5825 5825 5825 5825 5825 5825 5825 5824 5824 5823 5823 5822 5821 5819 5818 5816 5814 5812 5810 5808 5805 5803 5800 5797 5794 5791 5788 5785
5809 5811 5811 5812 5814 5814 5814 5814 5815 5816 5816 5817 5817 5818 5818 5818 5818 5819 5819 5818 5818 5818 5818 5817 5817 5816 5815 5814 5813 5811 5809 5808 5806 5804 5801 5799 5796 5793 5790 5787 5784 5781 5778 5774
5803 5803 5804 5805 5806 5806 5807 5807 5808 5809 5810 5810 5811 5811 5811 5812 5812 5812 5812 5811 5811 5810 5810 5809 5809 5808 5807 5805 5804 5802 5801 5799 5796 5794 5792 5789 5786 5783 5780 5777 5773 5770 5767 5763
5796 5796 5797 5798 5799 5799 5800 5800 5801 5802 5803 5803 5803 5804 5804 5804 5804 5804 5804 5803 5803 5802 5802 5801 5800 5799 5798 5796 5795 5793 5791 5789 5787 5784 5781 5778 5776 5773 5769 5766 5762 5759 5756 5751
5788 5789 5790 5791 5792 5792 5793 5793 5793 5794 5794 5795 5795 5796 5796 5796 5796 5796 5795 5795 5795 5794 5793 5792 5791 5790 5789 5787 5785 5783 5781 5779 5776 5774 5771 5767 5764 5761 5758 5755 5751 5747 5744 5740
Wind_Speed
17 17 20 20 20 18 17 16 15 14 13 12 12 12 13 12 12 11 10 9 9 9 9 8 8 6 5 5 4 3 3 3 3 3 3 4 5 6 7 8 9 10 11 12
16 16 17 19 18 18 16 15 13 12 11 10 9 9 11 12 11 11 10 9 9 9 9 9 8 7 6 5 4 4 4 3 3 3 3 4 5 5 6 7 8 9 10 12
13 15 16 17 17 18 17 15 13 11 10 9 8 8 9 11 11 10 10 9 9 9 9 9 9 8 7 6 5 4 4 4 3 3 3 3 4 5 6 8 9 10 11 12
11 13 14 14 15 16 15 14 13 11 10 9 9 9 9 9 10 10 10 10 9 9 9 9 9 9 8 7 6 5 4 4 3 3 3 4 5 6 7 9 9 11 12 13
11 12 13 13 14 15 14 14 13 12 10 9 9 8 8 9 9 9 9 9 9 10 10 10 9 9 9 8 7 6 6 5 4 4 4 5 6 7 8 9 10 11 13 13
10 11 12 13 13 14 13 12 12 10 8 8 9 8 8 9 8 9 9 9 10 10 10 10 10 10 9 9 8 8 7 6 5 5 5 6 6 7 8 9 10 12 13 13
9 10 12 12 12 13 12 11 9 9 8 9 9 9 8 9 9 8 9 9 9 9 10 11 10 10 10 10 9 8 8 7 6 6 7 7 7 8 9 10 11 13 13 13
9 10 11 11 12 12 12 11 10 9 9 9 9 8 8 9 9 9 9 9 10 10 10 10 10 10 10 10 9 9 8 7 7 7 8 8 8 9 10 11 12 13 14 14
9 10 11 11 12 12 12 11 10 9 8 8 8 9 8 8 9 9 9 10 10 10 10 10 10 11 11 10 10 9 9 8 8 9 9 10 10 11 12 13 14 14 15 15
8 9 10 11 11 11 11 11 10 9 8 8 8 9 10 9 9 9 10 10 10 10 10 10 10 10 11 11 10 10 10 10 10 10 11 11 12 13 13 14 15 15 16 16
7 8 9 10 11 10 11 10 9 9 9 8 7 8 10 10 10 10 10 10 10 10 10 10 11 11 11 11 11 11 11 11 11 11 12 13 13 14 15 15 16 17 17 17
7 8 8 9 10 10 11 11 10 10 10 10 9 9 10 11 11 11 11 10 10 10 10 11 11 12 12 12 12 12 12 12 13 13 13 14 15 15 16 17 17 18 18 19
7 7 8 8 9 10 10 11 11 10 11 10 10 10 11 12 12 12 12 11 11 11 11 11 12 13 13 13 13 13 14 14 14 14 15 16 17 17 18 18 19 19 19 20
8 8 9 10 10 10 10 10 10 11 10 10 11 11 12 12 13 13 13 12 12 12 13 13 13 13 14 14 14 14 15 15 16 16 17 18 19 19 19 20 20 21 21 22
9 9 10 11 11 11 10 11 11 11 11 11 11 12 12 13 14 14 14 14 14 14 14 14 14 14 14 15 15 16 16 17 17 18 19 20 20 20 21 21 22 22 23 23
11 11 11 12 13 13 12 12 12 12 12 13 13 13 14 15 15 15 15 15 15 15 15 15 15 16 16 16 17 17 18 18 19 20 20 21 21 22 22 23 23 23 24 24
13 13 14 14 15 15 13 13 14 14 14 14 14 14 15 16 16 16 16 16 16 16 16 16 17 17 17 18 18 19 19 20 21 21 22 22 23 23 24 24 24 25 25 27
15 15 15 15 16 16 14 15 16 15 15 15 15 15 15 15 16 16 16 16 16 17 17 17 18 18 19 19 20 20 21 21 22 22 23 24 24 25 25 26 26 27 27 28
16 16 16 16 16 15 15 16 16 16 16 16 16 16 16 15 15 16 16 17 17 17 18 18 19 19 20 20 21 21 22 22 23 24 24 25 26 26 27 27 28 28 28 29
17 17 17 17 17 16 16 17 17 17 16 16 16 17 17 16 17 16 17 17 18 18 19 19 20 20 21 21 22 23 23 23 24 25 26 26 27 28 28 29 29 30 30 31
18 19 18 18 18 17 17 17 17 17 17 17 17 18 17 17 17 17 18 18 19 19 20 20 21 21 22 23 24 25 25 26 26 27 27 28 29 29 30 30 31 32 32 33
19 19 19 19 20 18 19 18 19 19 19 18 18 19 19 18 18 18 19 20 21 21 21 22 23 23 24 25 26 27 27 28 28 28 29 30 31 31 32 33 34 34 35 35
21 21 21 21 21 21 21 21 21 21 20 20 20 20 20 20 20 20 21 21 22 23 24 24 25 25 26 26 27 28 29 29 29 30 31 32 32 33 34 35 36 37 37 38
23 23 23 23 23 23 23 23 22 22 22 22 21 21 22 22 22 22 23 23 24 25 26 26 27 27 28 29 29 30 30 31 31 32 33 34 35 35 36 37 38 39 39 40
24 25 25 25 25 25 25 25 24 24 24 24 24 24 24 25 25 25 25 26 26 27 28 28 28 29 29 30 31 31 32 33 33 34 35 36 36 37 38 39 40 40 41 42
26 27 27 27 27 27 27 27 27 27 27 27 27 27 28 28 28 28 28 29 29 29 29 29 30 31 31 32 33 33 34 35 36 37 37 38 39 39 40 41 41 42 42 43
Wind_Direction
166 167 169 173 176 179 182 183 185 185 188 191 192 191 187 192 194 196 198 201 201 203 207 210 210 214 223 231 230 231 248 272 296 311 323 337 346 353 356 359 359 357 357 356
164 167 168 172 175 179 178 179 180 180 179 184 189 185 184 190 194 198 200 205 207 209 210 213 218 222 228 232 231 239 255 272 289 305 320 336 347 353 356 356 357 356 355 354
155 159 159 164 169 172 174 177 182 180 177 185 188 189 188 191 197 201 206 210 215 215 216 220 224 226 228 231 233 240 255 265 280 300 321 335 341 345 347 348 350 351 351 353
159 157 160 161 163 168 173 175 173 173 176 182 184 189 196 199 199 203 207 212 219 222 223 225 226 225 224 226 231 237 245 253 265 285 306 318 325 333 339 342 345 347 348 349
161 160 162 165 166 169 173 173 173 174 179 183 185 191 202 203 207 209 215 219 224 229 228 228 228 227 226 227 230 236 242 248 260 280 295 307 316 325 331 336 339 342 344 345
164 163 164 167 167 170 172 173 177 181 186 190 192 197 205 209 212 217 221 223 229 233 234 232 230 230 231 232 234 239 243 247 260 275 288 299 308 317 324 330 334 337 338 339
168 170 171 171 170 170 174 176 180 187 195 201 200 206 213 217 217 222 224 228 235 239 239 234 232 233 234 234 235 240 245 251 263 275 286 295 302 310 319 325 328 331 333 335
174 176 178 178 177 178 178 176 181 189 200 204 210 211 218 223 225 228 231 232 237 242 238 235 234 235 236 237 239 242 248 255 266 277 285 292 301 308 314 320 323 326 329 331
177 184 184 185 185 185 185 186 191 196 203 210 219 222 224 227 230 232 233 234 237 238 238 237 236 236 238 240 243 246 250 258 267 278 286 292 299 305 310 314 317 320 323 325
176 181 185 187 188 190 191 195 200 204 208 211 221 226 228 233 233 232 232 232 232 233 235 235 236 238 240 244 248 251 255 262 270 278 287 292 297 302 306 310 312 315 317 319
172 176 181 187 191 197 201 206 210 213 212 211 217 224 226 230 232 229 229 229 231 233 236 237 239 243 245 249 253 256 259 264 271 278 286 291 296 300 304 307 309 312 314 316
179 180 187 193 198 206 210 211 214 218 219 221 225 226 229 230 230 232 234 236 238 240 243 243 245 247 250 254 258 261 264 267 272 278 285 291 295 299 302 305 308 310 312 314
197 196 200 206 211 216 219 218 220 221 225 226 230 233 235 234 236 238 240 243 243 245 249 251 252 254 257 259 262 264 267 269 273 279 285 291 294 298 300 303 306 308 309 311
212 212 212 219 226 224 223 224 227 229 230 233 235 234 237 240 241 243 245 246 248 252 256 257 258 260 262 263 264 266 269 272 275 280 285 290 294 297 299 301 303 305 306 308
219 221 225 228 231 231 232 236 239 240 239 239 236 237 240 245 246 247 248 250 253 257 260 261 263 264 265 266 267 268 270 274 277 281 286 290 293 296 298 300 302 304 305 307
228 230 233 236 238 239 240 243 247 247 250 249 245 244 248 251 252 253 252 253 257 260 262 264 266 267 267 268 269 270 273 276 279 283 286 290 294 296 298 299 301 302 303 305
238 239 241 244 246 246 244 245 249 248 249 250 249 248 252 254 255 256 256 258 259 261 263 265 267 269 271 272 272 273 276 279 282 284 287 290 293 295 297 298 299 300 302 304
245 247 248 249 249 249 245 246 250 251 250 252 253 253 255 257 256 254 255 257 258 261 264 265 267 270 273 274 275 276 279 282 283 285 288 290 292 294 296 298 299 300 301 302
248 249 250 250 252 251 250 252 253 254 255 257 257 257 259 260 259 258 259 261 263 265 266 268 270 271 274 276 277 279 281 283 285 287 288 290 292 294 295 297 298 299 300 301
250 250 251 251 254 254 254 255 257 258 258 259 260 260 262 264 264 263 264 264 266 267 268 268 270 273 274 277 279 281 283 285 286 288 289 290 292 293 294 296 297 298 299 300
252 253 253 254 255 255 255 256 257 259 260 259 261 263 263 264 265 266 266 266 267 268 269 271 273 275 277 279 281 283 285 286 287 288 289 291 293 293 294 295 296 297 298 299
252 253 253 254 255 255 255 256 257 260 261 263 264 264 264 264 265 267 269 269 270 270 271 273 275 277 279 281 283 284 285 286 288 289 290 291 292 293 294 294 295 296 297 298
253 254 254 254 255 255 256 257 259 260 262 264 265 266 264 264 266 268 270 270 271 272 273 275 277 279 281 282 284 285 286 287 288 289 290 291 291 291 293 294 294 295 296 297
254 255 255 255 255 256 257 259 260 261 263 265 266 266 267 266 267 269 271 271 272 273 275 276 278 279 281 283 284 285 286 287 288 289 290 290 291 292 293 294 295 295 296 297
255 255 256 256 257 258 260 261 261 263 264 265 265 266 267 269 270 270 270 271 272 274 275 277 278 279 281 282 284 285 286 287 288 289 290 290 291 292 294 295 295 295 296 296
256 258 258 259 258 259 259 261 263 264 265 266 267 267 268 269 270 271 271 272 273 275 276 277 279 280 281 283 284 285 286 287 289 289 290 290 291 292 294 295 295 295 296 296